This is the latest recevied weather packets stored in our database for station/object KC0RKM-13. If no packets are shown the sender has not sent any weather packets the latest 10 day(s).
| Time | Temp. | Humidity | Pressure | Rain* | Wind** | Luminosity | Snow |
|---|---|---|---|---|---|---|---|
| 1787949604 | 31.67° C | 42% | 1017.9 hPa | 0 mm | - | - | - |
| 1787949003 | 31.67° C | 40% | 1017.9 hPa | 0 mm | - | - | - |
| 1787948403 | 31.67° C | 39% | 1018.3 hPa | 0 mm | - | - | - |
| 1787947804 | 31.11° C | 41% | 1018.4 hPa | 0 mm | - | - | - |
| 1787947213 | 31.11° C | 42% | 1018.3 hPa | 0 mm | - | - | - |
| 1787946603 | 30.56° C | 41% | 1018.7 hPa | 0 mm | - | - | - |
| 1787946004 | 30.56° C | 43% | 1018.8 hPa | 0 mm | - | - | - |
| 1787945404 | 30.56° C | 44% | 1018.8 hPa | 0 mm | - | - | - |
| 1787944804 | 31.11° C | 42% | 1018.8 hPa | 0 mm | - | - | - |
| 1787944204 | 30° C | 44% | 1019.2 hPa | 0 mm | - | - | - |
| 1787943604 | 30° C | 47% | 1019.3 hPa | 0 mm | - | - | - |
| 1787943003 | 30° C | 45% | 1019.5 hPa | 0 mm | - | - | - |
| 1787942403 | 29.44° C | 45% | 1019.6 hPa | 0 mm | - | - | - |
| 1787941804 | 30° C | 45% | 1019.7 hPa | 0 mm | - | - | - |
| 1787941204 | 29.44° C | 46% | 1019.8 hPa | 0 mm | - | - | - |
| 1787940603 | 29.44° C | 47% | 1020 hPa | 0 mm | - | - | - |
| 1787940004 | 28.89° C | 47% | 1020.3 hPa | 0 mm | - | - | - |
| 1787939403 | 28.89° C | 50% | 1020.1 hPa | 0 mm | - | - | - |
| 1787938803 | 29.44° C | 47% | 1020.4 hPa | 0 mm | - | - | - |
| 1787938204 | 28.33° C | 50% | 1020.4 hPa | 0 mm | - | - | - |
| 1787937604 | 28.33° C | 50% | 1020.5 hPa | 0 mm | - | - | - |
| 1787937003 | 27.78° C | 50% | 1020.5 hPa | 0 mm | - | - | - |
| 1787936403 | 28.33° C | 51% | 1020.5 hPa | 0 mm | - | - | - |
| 1787935804 | 28.33° C | 49% | 1020.8 hPa | 0 mm | - | - | - |
| 1787935203 | 27.78° C | 50% | 1020.9 hPa | 0 mm | - | - | - |
* Rain latest hour (hover to see other rain measurements)
** Current wind speed in m/s (hover to see current wind gust speed)